Simultaneous Nadir Overpasses (SNOs) Predictions

Prediction of SNOs between AQUA and METOP-A Satellite Orbit:

Table of predicted SNOs for the next 14.0 days since TLE Epoch: 10/23/2015
Index Date (AQUA) Time (AQUA) Lat,Lon (AQUA) SZA (AQUA ) Date (METOP-A) Time (METOP-A) Lat,Lon (METOP-A) SZA (METOP-A ) Distance(km) Time Diff (sec)
1 10/24/2015 17:28:14 -73.70, 92.42 94.58 10/24/2015 17:27:03 -73.63, 91.46 94.63 31.08 71
2 10/24/2015 18:17:46 73.92,-100.42 85.66 10/24/2015 18:17:37 73.92,-100.52 85.67 3.27 9
3 10/24/2015 19:07:13 -74.00, 67.03 94.24 10/24/2015 19:08:17 -74.00, 67.00 94.24 0.86 64
4 10/27/2015 13:02:31 -73.77, 158.69 93.54 10/27/2015 13:01:18 -73.73, 158.11 93.57 18.62 73
5 10/27/2015 13:52:02 73.94, -34.05 86.66 10/27/2015 13:51:53 73.97, -33.99 86.68 2.89 9
6 10/27/2015 14:41:29 -74.03, 133.40 93.25 10/27/2015 14:42:34 -74.00, 133.42 93.28 2.97 65
7 10/30/2015 08:36:48 -73.83,-135.00 92.54 10/30/2015 08:35:35 -73.77,-135.36 92.59 12.99 73
8 10/30/2015 09:26:18 73.95, 32.36 87.60 10/30/2015 09:26:11 73.95, 32.40 87.60 1.25 7
9 10/30/2015 10:15:44 -73.98,-160.06 92.36 10/30/2015 10:16:52 -73.99,-160.17 92.35 3.67 68
10 11/02/2015 04:11:04 -73.87, -68.65 91.59 11/02/2015 04:09:51 -73.86, -68.74 91.60 2.98 73
11 11/02/2015 05:00:33 73.95, 98.82 88.50 11/02/2015 05:00:29 73.93, 98.78 88.49 1.79 4
12 11/02/2015 05:50:00 -74.02, -93.71 91.41 11/02/2015 05:51:09 -74.03, -93.66 91.41 1.75 69
13 11/04/2015 23:45:18 -73.89, -2.26 90.69 11/04/2015 23:44:07 -73.89, -2.24 90.69 0.69 71
14 11/05/2015 00:34:47 73.97, 165.20 89.41 11/05/2015 00:34:45 73.96, 165.27 89.39 2.49 2




NCC Satellite Simultaneous Nadir Overpasses (SNOs) Prediction Service
